Flag for U.S.A. Weather past 2 weeks in El Paso, Texas, U.S.A.

Now
81 °F

Passing clouds.


Feels Like: 80 °F
Forecast: 75 / 98 °F
Wind: 3 mph from Northeast

Location: El Paso International Airport

Current Time: Sep 2, 2015 at 2:52:57 AM

Latest Report: Sep 2, 2015 at 1:51 AM


Visibility: 10 mi

Pressure: 29.82 "Hg (26.18 "Hg at 1142m altitude)

Humidity: 28%

Dew point: 45 °F

Location of El PasoLocation

Historic Weather in El Paso — Graph

°F

El Paso temperature yesterday

Maximum temperature yesterday: 97 °F (at 4:51 PM)
Minimum temperature yesterday: 71 °F (at 6:51 AM)
Average temperature yesterday: 86 °F

Past Weeks' High & Low Weather Summary

 TemperatureHumidityPressure
High101 °F (Aug 18, 3:51 PM)90% (Aug 24, 4:51 AM)30.03 "Hg (Aug 24, 4:51 AM)
Low68 °F (Aug 24, 6:51 AM)13% (Aug 20, 5:51 PM)29.52 "Hg (Aug 18, 5:51 PM)
Average84 °F38%29.82 "Hg
* Reported Aug 18 12:51 AM — Sep 2 12:51 AM, El Paso, Weather by CustomWeather, © 2015

Note: Actual official high and low records may vary slightly from our data, if they occured in-between our weather recording intervals... More about our weather records

Advertising

El Paso weather history for previous 24 hours

 ConditionsComfort  
Time TempWeatherWind HumidityBarometerVisibility
12:51 AM
Wed, Sep 2
81 °FPassing clouds.12 mph25%29.82 "Hg10 mi
11:51 PM
Tue, Sep 1
88 °FPassing clouds.No wind20%29.79 "Hg10 mi
10:51 PM87 °FPassing clouds.7 mph20%29.80 "Hg10 mi
9:51 PM88 °FPassing clouds.8 mph19%29.79 "Hg10 mi
8:51 PM88 °FPassing clouds.5 mph21%29.78 "Hg10 mi
7:51 PM90 °FPartly sunny.7 mph18%29.75 "Hg10 mi
6:51 PM94 °FPartly sunny.3 mph15%29.75 "Hg10 mi
5:51 PM95 °FScattered clouds.7 mph15%29.74 "Hg10 mi
4:51 PM97 °FScattered clouds.9 mph14%29.74 "Hg10 mi
2:51 PM96 °FScattered clouds.3 mph14%29.78 "Hg10 mi
1:51 PM94 °FPassing clouds.3 mph18%29.80 "Hg10 mi
12:51 PM92 °FPassing clouds.No wind20%29.80 "Hg10 mi
11:51 AM91 °FScattered clouds.5 mph20%29.83 "Hg10 mi
10:51 AM90 °FScattered clouds.No wind23%29.84 "Hg10 mi
9:51 AM85 °FScattered clouds.5 mph26%29.84 "Hg10 mi
8:51 AM81 °FPassing clouds.No wind33%29.84 "Hg10 mi
7:51 AM77 °FPassing clouds.3 mph36%29.82 "Hg10 mi
6:51 AM71 °FPassing clouds.6 mph42%29.82 "Hg10 mi
5:51 AM74 °FPassing clouds.5 mph38%29.79 "Hg10 mi
4:51 AM75 °FPassing clouds.3 mph37%29.78 "Hg10 mi
3:51 AM77 °FPassing clouds.No wind33%29.78 "Hg10 mi
2:51 AM76 °FPassing clouds.3 mph33%29.79 "Hg10 mi
Weather by CustomWeather, © 2015

See weather overviewHow to use our weather pages